Ketchikan, AK

4:26 AM AKDT on August 15, 2018 (GMT -0800)
Ketchikan International

Weather History for PAKT - May, 2018

Change the Weather History Date:

Saturday, May 12, 2018

  Actual Average Record
Temperature  
Mean Temperature 54 °F -  
Max Temperature 60 °F 56 °F 77 °F (1968)
Min Temperature 48 °F 40 °F 30 °F (1964)
Degree Days  
Heating Degree Days 11    
Growing Degree Days 4 (Base 50)    
Moisture  
Dew Point 49 °F    
Average Humidity 90    
Maximum Humidity 100    
Minimum Humidity 68    
Precipitation  
Precipitation 0.00 in - - ()
Sea Level Pressure  
Sea Level Pressure 30.36 in    
Wind  
Wind Speed 5 mph (SE)    
Max Wind Speed 9 mph    
Max Gust Speed -    
Visibility 7 miles    
Events      
Averages and records for this station are not official NWS values.
T = Trace of Precipitation, MM = Missing Value Source: NWS Daily Summary

Daily Weather History Graph

Daily Weather History Graph

Search for Another Location

Airport or City:

Astronomy

May. 12, 2018 Rise Set
Actual Time 4:42 AM AKDT 8:45 PM AKDT
Civil Twilight 3:55 AM AKDT 9:32 PM AKDT
Nautical Twilight 2:45 AM AKDT 10:43 PM AKDT
Astronomical Twilight 1:15 AM AKDT 12:10 AM AKDT
Moon 4:15 AM AKDT (5/12) 5:05 PM AKDT (5/12)
Length of Visible Light 17h 37m
Length of Day
16h 02m
Waning Crescent, 9% of the Moon is Illuminated
May 12
Waning Crescent
May 15
New
May 21
First Quarter
May 29
Full
Jun 6
Last Quarter

Hourly Weather History & Observations

Time (AKDT) Temp. Dew Point Humidity Pressure Visibility Wind Dir Wind Speed Gust Speed Precip Events Conditions
12:02 AM 50.0 °F 48.0 °F 93% 30.40 in 10.0 mi SE 3.5 mph - N/A   Overcast
12:11 AM 50.0 °F 48.2 °F 94% 30.40 in 10.0 mi SSE 3.5 mph - N/A   Overcast
12:27 AM 50.0 °F 48.9 °F 96% 30.40 in 10.0 mi ESE 4.6 mph - N/A   Overcast
12:53 AM 50.0 °F 48.9 °F 96% 30.40 in 10.0 mi SE 4.6 mph - N/A   Overcast
1:43 AM 50.0 °F 48.9 °F 96% 30.39 in 10.0 mi SE 5.8 mph - N/A   Overcast
1:53 AM 50.0 °F 48.9 °F 96% 30.39 in 10.0 mi SE 5.8 mph - N/A   Overcast
2:07 AM 50.0 °F 48.9 °F 96% 30.39 in 8.0 mi SE 5.8 mph - N/A   Overcast
2:16 AM 50.0 °F 48.9 °F 96% 30.39 in 5.0 mi SE 5.8 mph - N/A   Overcast
2:44 AM 50.0 °F 48.9 °F 96% 30.38 in 5.0 mi SE 6.9 mph - N/A   Overcast
2:53 AM 50.0 °F 48.9 °F 96% 30.39 in 6.0 mi SE 4.6 mph - N/A   Overcast
3:03 AM 50.0 °F 48.9 °F 96% 30.38 in 5.0 mi SE 4.6 mph - N/A   Overcast
3:53 AM 50.0 °F 48.9 °F 96% 30.38 in 3.0 mi ESE 5.8 mph - N/A   Overcast
4:00 AM 50.0 °F 48.9 °F 96% 30.38 in 2.0 mi ESE 8.1 mph - N/A   Overcast
4:11 AM 50.0 °F 48.9 °F 96% 30.38 in 2.5 mi SE 6.9 mph - N/A   Overcast
4:21 AM 48.9 °F 48.9 °F 100% 30.38 in 3.0 mi SE 5.8 mph - N/A   Overcast
4:53 AM 50.0 °F 48.9 °F 96% 30.38 in 3.0 mi SSE 5.8 mph - N/A   Overcast
5:18 AM 50.0 °F 48.9 °F 96% 30.37 in 3.0 mi SSE 4.6 mph - N/A   Overcast
5:53 AM 50.0 °F 48.9 °F 96% 30.38 in 7.0 mi SSE 5.8 mph - N/A   Overcast
6:03 AM 50.0 °F 48.9 °F 96% 30.38 in 4.0 mi SSE 4.6 mph - N/A   Overcast
6:53 AM 50.0 °F 48.2 °F 94% 30.39 in 4.0 mi SE 5.8 mph - N/A   Overcast
7:53 AM 51.8 °F 50.0 °F 94% 30.38 in 3.0 mi SE 6.9 mph - N/A   Overcast
8:53 AM 51.8 °F 50.0 °F 94% 30.39 in 3.0 mi SE 6.9 mph - N/A   Overcast
9:53 AM 51.8 °F 50.0 °F 94% 30.38 in 4.0 mi ESE 8.1 mph - N/A   Overcast
10:09 AM 51.8 °F 50.0 °F 94% 30.38 in 8.0 mi ESE 9.2 mph - N/A   Overcast
10:53 AM 53.6 °F 50.0 °F 88% 30.39 in 10.0 mi ESE 6.9 mph - N/A   Overcast
11:53 AM 55.4 °F 50.0 °F 82% 30.38 in 10.0 mi SE 4.6 mph - N/A   Overcast
12:53 PM 57.2 °F 50.0 °F 77% 30.38 in 10.0 mi ESE 8.1 mph - N/A   Overcast
1:53 PM 57.2 °F 50.0 °F 77% 30.36 in 10.0 mi ESE 9.2 mph - N/A   Overcast
2:53 PM 57.2 °F 48.2 °F 72% 30.35 in 10.0 mi ESE 8.1 mph - N/A   Overcast
3:53 PM 60.8 °F 50.0 °F 68% 30.34 in 10.0 mi ESE 6.9 mph - N/A   Mostly Cloudy
4:53 PM 60.8 °F 50.0 °F 68% 30.32 in 10.0 mi ESE 4.6 mph - N/A   Mostly Cloudy
5:53 PM 55.4 °F 50.0 °F 82% 30.30 in 10.0 mi NW 8.1 mph - N/A   Mostly Cloudy
6:53 PM 57.2 °F 50.0 °F 77% 30.29 in 10.0 mi WNW 5.8 mph - N/A   Scattered Clouds
7:53 PM 55.0 °F 50.0 °F 83% 30.28 in 10.0 mi WNW 4.6 mph - N/A   Mostly Cloudy
8:53 PM 53.1 °F 50.0 °F 89% 30.28 in 10.0 mi NW 4.6 mph - N/A   Mostly Cloudy
9:53 PM 52.0 °F 48.9 °F 89% 30.27 in 10.0 mi WNW 5.8 mph - N/A   Partly Cloudy
10:53 PM 50.0 °F 48.9 °F 96% 30.26 in 10.0 mi NW 3.5 mph - N/A   Clear
11:53 PM 50.0 °F 48.9 °F 96% 30.25 in 10.0 mi NW 8.1 mph - N/A   Clear